DateTimeUTC,F1_A11,F1_S11,BsB_S11,BsG_S11,BsR_S11,BbsB_S11,BbsG_S11,BbsR_S11,BaB_A11,BaG_A11,BaR_A11,Tu_S11,T_S11,Uu_S11,U_S11,P_S11,T1_A11
2021-04-28T14:00:00Z,00040200,20000000,,,,,,,0000.15,0000.05,0000.33,20.4,27.1,03.9,02.6,0682.5,31.3
2021-04-28T14:01:00Z,00040200,20000000,,,,,,,0000.13,0000.32,-000.04,20.4,27.1,03.9,02.6,0682.5,31.3
2021-04-28T14:02:00Z,00040200,20000000,,,,,,,0000.24,0000.31,0000.23,20.4,27.1,03.9,02.6,0682.5,31.3
2021-04-28T14:03:00Z,00040200,60000000,,,,,,,0000.66,-000.08,0000.22,20.4,27.1,03.9,02.6,0682.5,31.3
2021-04-28T14:04:00Z,00040200,40000000,0001.33,0000.73,0000.92,0000.49,0000.26,0000.03,0000.53,0000.69,0000.40,20.5,27.0,04.2,02.9,0683.4,31.3
2021-04-28T14:05:00Z,00040200,00000000,0001.09,0000.58,0000.66,0000.50,0000.12,0000.18,0000.67,0000.67,0000.15,20.6,26.9,04.3,02.9,0683.5,31.3
2021-04-28T14:06:00Z,00040200,00000000,0001.78,0000.71,0000.70,0000.32,0000.38,0000.44,0000.24,0000.41,0000.88,20.6,26.9,04.2,02.9,0683.4,31.3
2021-04-28T14:07:00Z,00040200,00000000,0001.74,0000.53,0000.61,0000.64,0000.36,0000.09,0000.69,0000.73,0000.29,20.6,26.9,04.3,02.9,0683.5,31.3
2021-04-28T14:08:00Z,00040200,00000000,0001.93,0000.94,0000.52,0000.76,0000.33,0000.44,0000.52,0000.23,0000.23,20.6,26.9,04.3,02.9,0683.5,31.3
2021-04-28T14:09:00Z,00040200,00000000,0001.43,0000.35,0001.09,0000.04,0000.37,0000.35,0000.61,0000.59,0000.72,20.6,26.9,04.4,03.0,0683.4,31.3
2021-04-28T14:10:00Z,00040200,00000000,0002.10,0000.78,0000.61,0000.76,0000.25,0000.13,0000.71,0000.64,0000.30,20.6,26.9,04.3,03.0,0683.5,31.3
2021-04-28T14:11:00Z,00040200,00000000,0001.53,0000.62,0000.93,0000.55,0000.41,0000.40,0000.38,0000.33,-000.03,20.6,26.9,04.3,03.0,0683.5,31.3
2021-04-28T14:12:00Z,00040200,00000000,0001.47,0000.87,0000.58,0000.37,0000.32,0000.08,0000.81,0000.77,0000.89,20.6,26.9,04.4,03.0,0683.5,31.3
2021-04-28T14:13:00Z,00040200,00000000,0001.36,0000.41,0000.96,0000.12,0000.09,0000.08,0000.94,0000.28,0000.25,20.6,26.9,04.5,03.1,0683.4,31.3
2021-04-28T14:14:00Z,00040200,00000000,0001.63,0000.82,0000.64,0000.14,0000.15,0000.18,0000.31,0000.66,0000.34,20.6,26.9,04.6,03.1,0683.4,31.3
2021-04-28T14:15:00Z,00040200,00000000,0001.65,0000.82,0000.79,0000.40,0000.43,0000.53,0000.69,0000.53,0000.53,20.6,26.9,04.7,03.2,0683.4,31.3
2021-04-28T14:16:00Z,00040200,00000000,0001.18,0000.89,0000.72,-000.24,0000.23,0000.18,0000.60,0000.39,0000.70,20.6,26.9,04.7,03.2,0683.4,31.3
2021-04-28T14:17:00Z,00040200,00000000,0001.57,0000.68,0000.71,0001.00,0000.19,0000.23,0000.53,0000.57,-000.12,20.6,26.9,04.7,03.2,0683.4,31.2
2021-04-28T14:18:00Z,00040200,00000000,0002.12,0000.80,0000.77,0000.30,0000.11,0000.53,0000.19,0000.53,0000.39,20.6,26.9,04.6,03.1,0683.4,31.3
2021-04-28T14:19:00Z,00040200,00000000,0001.05,0000.86,0001.01,-000.15,0000.22,0000.42,0000.69,0000.39,0000.58,20.6,26.9,04.5,03.1,0683.4,31.3
2021-04-28T14:20:00Z,00040200,00000000,0001.38,0000.53,0000.50,-000.17,0000.28,0000.30,0000.30,0000.25,-000.07,20.6,26.9,04.6,03.2,0683.4,31.3
2021-04-28T14:21:00Z,00040200,00000000,0001.40,0000.74,0000.55,0000.27,0000.51,0000.22,0000.72,0000.77,0000.63,20.6,26.9,04.6,03.2,0683.4,31.3
2021-04-28T14:22:00Z,00040200,00000000,0001.40,0000.76,0000.58,0000.37,0000.16,0000.35,0000.53,0000.57,0000.67,20.6,26.9,04.7,03.2,0683.4,31.3
2021-04-28T14:23:00Z,00040200,00000000,0001.02,0000.48,0000.77,0000.45,0000.26,0000.13,0000.98,0001.49,0000.54,20.6,26.9,04.8,03.3,0683.3,31.3
2021-04-28T14:24:00Z,00040200,00000000,0001.67,0000.88,0000.91,0000.59,0000.33,0000.14,0000.31,-000.08,-000.04,20.6,26.9,04.9,03.4,0683.3,31.3
2021-04-28T14:25:00Z,00040200,00000000,0001.99,0000.68,0000.78,0000.12,-000.07,0000.29,0000.31,0000.13,0000.13,20.6,26.9,04.8,03.3,0683.3,31.3
2021-04-28T14:26:00Z,00040200,00000000,0001.02,0000.48,0000.88,0000.56,0000.38,0000.58,0000.25,-000.04,0000.47,20.6,26.9,04.5,03.1,0683.3,31.3
2021-04-28T14:27:00Z,00040200,00000000,0001.25,0000.71,0000.76,0000.42,0000.28,0000.01,-000.15,0000.21,0000.11,20.6,26.9,04.5,03.1,0683.3,31.3
2021-04-28T14:28:00Z,00040200,00000000,0001.63,0000.52,0000.77,0000.05,0000.26,0000.42,0000.99,0000.79,0000.35,20.6,26.9,04.5,03.1,0683.4,31.3
2021-04-28T14:29:00Z,00040200,00000000,0001.64,0000.78,0000.37,0000.45,0000.17,0000.04,0000.27,0000.28,0000.46,20.6,26.9,04.4,03.0,0683.3,31.3
2021-04-28T14:30:00Z,00040200,00000000,0002.00,0000.73,0000.79,0000.25,0000.32,0000.10,0000.02,0000.29,-000.08,20.6,26.9,04.3,02.9,0683.3,31.3
2021-04-28T14:31:00Z,00040200,00000000,0001.42,0000.83,0000.88,0000.26,0000.18,0000.31,0000.65,0000.25,0000.41,20.6,26.9,04.2,02.9,0683.3,31.3
2021-04-28T14:32:00Z,00040200,00000000,0001.66,0000.72,0000.70,0000.02,0000.44,0000.31,0000.44,0000.70,0000.32,20.6,26.9,04.3,02.9,0683.3,31.3
2021-04-28T14:33:00Z,00040200,00000000,0002.08,0000.88,0000.68,-000.27,0000.21,0000.41,0000.54,0000.39,0000.36,20.6,26.9,04.3,02.9,0683.3,31.3
2021-04-28T14:34:00Z,00040200,00000000,0002.27,0000.68,0000.40,-000.07,0000.38,0000.24,0000.22,0000.30,0000.09,20.6,26.9,04.2,02.9,0683.3,31.3
2021-04-28T14:35:00Z,00040200,00000000,0001.93,0000.87,0000.84,0000.04,0000.35,0000.29,0000.55,0000.52,0000.50,20.6,26.9,04.2,02.9,0683.4,31.3
2021-04-28T14:36:00Z,00040200,00000000,0001.44,0000.71,0000.62,0000.09,0000.22,0000.24,0000.97,0000.41,0000.65,20.6,26.9,04.2,02.9,0683.3,31.3
2021-04-28T14:37:00Z,00040200,00000000,0001.77,0000.57,0000.51,0000.09,0000.22,0000.27,0000.57,0000.62,0000.50,20.6,26.9,04.4,03.0,0683.3,31.3
2021-04-28T14:38:00Z,00040200,00000000,0001.39,0000.93,0000.51,-000.08,0000.32,0000.42,0001.30,0001.11,0000.68,20.6,26.9,04.6,03.1,0683.3,31.3
2021-04-28T14:39:00Z,00040200,00000000,0001.51,0000.60,0000.50,0000.27,0000.06,-000.03,0000.51,0000.61,0000.58,20.6,26.9,04.6,03.2,0683.3,31.3
2021-04-28T14:40:00Z,00040200,00010000,0001.33,0000.97,0000.98,0000.42,0000.07,0000.36,0000.67,0000.67,0000.23,20.6,26.9,04.7,03.2,0683.3,31.3
2021-04-28T14:41:00Z,00040200,00000000,0001.93,0000.78,0000.76,0000.03,0000.43,0000.14,0001.16,0000.79,0000.90,20.6,26.9,04.8,03.3,0683.3,31.3
2021-04-28T14:42:00Z,00040200,00000000,0001.38,0000.94,0000.64,0000.07,0000.15,0000.34,0000.24,0000.32,0000.18,20.6,26.9,04.8,03.3,0683.3,31.3
2021-04-28T14:43:00Z,00040200,00000000,0001.63,0000.76,0000.39,0000.36,0000.26,0000.20,0000.57,0000.78,0000.78,20.6,26.9,05.0,03.4,0683.3,31.3
2021-04-28T14:44:00Z,00040200,00000000,0001.50,0000.94,0000.80,0000.36,0000.46,0000.14,0000.66,0000.59,0000.21,20.6,26.9,04.9,03.4,0683.3,31.3
2021-04-28T14:45:00Z,00040200,00000000,0001.51,0000.95,0001.21,-000.10,0000.34,0000.44,0000.62,0000.37,0000.49,20.6,26.9,05.1,03.5,0683.3,31.3
2021-04-28T14:46:00Z,00040200,00000000,0001.32,0000.55,0000.73,0000.11,0000.12,0000.12,0000.50,0000.54,0000.57,20.6,26.9,05.0,03.5,0683.3,31.3
2021-04-28T14:47:00Z,00040200,00000000,0001.98,0000.72,0000.96,0000.73,0000.45,0000.35,0000.39,0000.60,0000.10,20.6,26.9,04.9,03.4,0683.3,31.3
2021-04-28T14:48:00Z,00040200,00000000,0000.26,0000.72,0000.77,0000.10,0000.47,0000.32,0000.71,-000.05,0000.52,20.6,26.9,04.9,03.4,0683.3,31.3
2021-04-28T14:49:00Z,00040200,00000000,0002.24,0000.57,0000.83,0000.18,0000.24,0000.24,0000.31,0000.49,0000.14,20.6,26.9,04.9,03.4,0683.3,31.3
2021-04-28T14:50:00Z,00040200,00000000,0000.86,0000.59,0000.94,-000.02,0000.17,0000.56,0000.54,0000.54,0000.08,20.6,26.9,04.9,03.3,0683.3,31.3
2021-04-28T14:51:00Z,00040200,00000000,0001.43,0000.92,0000.50,0000.84,0000.10,0000.10,0000.39,0000.43,0000.32,20.6,26.9,04.8,03.3,0683.3,31.3
2021-04-28T14:52:00Z,00040200,00000000,0001.60,0000.75,0000.93,0000.23,0000.47,0000.27,0000.52,0000.55,0000.40,20.6,26.9,04.9,03.4,0683.2,31.3
2021-04-28T14:53:00Z,00040200,00000000,0001.81,0000.52,0000.55,0000.60,0000.12,-000.13,0000.38,0000.46,0000.67,20.6,26.9,04.9,03.3,0683.2,31.3
2021-04-28T14:54:00Z,00040200,00000000,0001.14,0000.59,0000.80,0000.56,0000.30,0000.28,0000.94,0000.70,0000.36,20.6,26.9,04.9,03.4,0683.2,31.3
2021-04-28T14:55:00Z,00040200,00000000,0001.49,0000.57,0001.15,0000.20,0000.14,0000.16,0000.29,0000.50,0000.50,20.7,26.9,05.0,03.4,0683.2,31.3
2021-04-28T14:56:00Z,00040200,00000000,0001.64,0000.60,0000.84,0000.52,0000.30,0000.23,0000.64,0000.15,0000.25,20.7,26.9,05.0,03.5,0683.2,31.3
2021-04-28T14:57:00Z,00040200,40000000,,,,,,,-000.43,0000.05,-000.18,20.7,26.9,05.4,03.7,0683.2,31.3
2021-04-28T14:58:00Z,00040200,60000000,,,,,,,0000.25,-000.11,-000.02,20.5,27.0,04.8,03.2,0682.2,31.3
2021-04-28T14:59:00Z,00040200,20000000,,,,,,,-000.28,-000.18,-000.35,20.5,27.1,04.8,03.2,0682.2,31.3
